Hourly Data Report for October 12, 2017

All times are specified in Local Standard Time (LST). Add 1 hour to adjust for Daylight Saving Time where and when it is observed.

KITCHENER/WATERLOO
ONTARIO

43°27'39.000" N
80°22'43.000" W
321.60 m
6144239
71368
YKF

Download Data

Hourly Data (October 2017)
Hourly Data Report for October 12, 2017
Temp Definition
°C
Dew Point Temp Definition
°C
Rel Hum Definition
%
Wind Dir Definition
10's deg

Wind Spd Definition
km/h
Visibility Definition
km
Stn Press Definition
kPa
Hmdx Definition


Wind Chill Definition


Weather Definition


TIME
00:00 Legend Double Dagger 6.7 4.7 87 6 18 16.1 98.57     LegendNANA
01:00 Legend Double Dagger 6.5 4.1 84 5 18 16.1 98.54     LegendNANA
02:00 Legend Double Dagger 6.9 4.1 83 4 17 16.1 98.55     LegendNANA
03:00 Legend Double Dagger 7.6 4.6 81 6 24 16.1 98.52     LegendNANA
04:00 Legend Double Dagger 7.3 4.3 81 5 24 16.1 98.55     LegendNANA
05:00 Legend Double Dagger 7.1 4.5 83 6 21 16.1 98.56     LegendNANA
06:00 Legend Double Dagger 6.9 4.5 85 6 18 16.1 98.58     LegendNANA
07:00 Legend Double Dagger 7.1 5.1 87 6 24 16.1 98.62     LegendNANA
08:00 Legend Double Dagger 7.8 5.8 87 6 22 16.1 98.66     LegendNANA
09:00 Legend Double Dagger 8.9 7.0 88 7 24 16.1 98.68     LegendNANA
10:00 Legend Double Dagger 9.0 7.9 93 7 24 16.1 98.68     LegendNANA
11:00 Legend Double Dagger 9.7 8.5 92 7 26 16.1 98.67     LegendNANA
12:00 Legend Double Dagger 10.3 9.4 94 7 26 16.1 98.66     LegendNANA
13:00 Legend Double Dagger 11.1 10.5 96 7 24 11.3 98.59     LegendNANA
14:00 Legend Double Dagger 12.4 11.3 93 8 26 16.1 98.55     LegendNANA
15:00 Legend Double Dagger 12.8 11.4 91 8 22 16.1 98.55     LegendNANA
16:00 Legend Double Dagger 12.8 11.6 92 9 26 16.1 98.54     LegendNANA
17:00 Legend Double Dagger 12.6 11.7 94 8 21 16.1 98.52     LegendNANA
18:00 Legend Double Dagger 12.6 11.8 95 8 21 11.3 98.53     LegendNANA
19:00 Legend Double Dagger 12.8 12.2 96 8 18 4.8 98.56     Rain,Fog
20:00 Legend Double Dagger 13.0 12.4 96 10 17 9.7 98.53     Fog
21:00 Legend Double Dagger 13.1 12.6 97 10 11 6.4 98.54     Fog
22:00 Legend Double Dagger 13.3 12.8 97 9 13 11.3 98.48     LegendNANA
23:00 Legend Double Dagger 13.6 13.0 96 12 15 11.3 98.47     LegendNANA

Notes on Data Quality.

Legend

  • E = Estimated
  • M = Missing
  • NA = Not Available
  • ‡ = Partner data that is not subject to review by the National Climate Archives
Date modified: